Location: Mannheim
(49.4880°N, 8.4650°E)
Time: 19:09:04
(UTC+01:00)

ISS - Pass Details

Date: 28 September 2023
Orbit: 415 x 417 km, 51.6° (Epoch: 09 December)

Event Time Altitude Azimuth Distance (km) Brightness Sun altitude
Rises 21:34:47 0° 287° (WNW) 2,358 1.4 -23.3°
Reaches altitude 10° 21:37:06 10° 274° (W) 1,491 -0.1 -23.7°
Enters shadow 21:39:08 23° 240° (WSW) 938 -1.7 -24.0°
